Regional Weather Roundup
Issued by NWS

Home | Current Version | Previous Version | Text Only | Print | Product List | Glossary Off
Versions: 1 2 3 4 5 6 7 8 9 10 11 12 13 14 15 16 17 18 19 20 21 22 23 24 25 26 27 28 29 30 31 32 33 34 35 36 37 38 39 40 41 42 43 44 45 46 47 48 49 50

000
ASUS45 KCYS 011510
RWRWY

WYOMING REGIONAL WEATHER ROUNDUP
NATIONAL WEATHER SERVICE CHEYENNE WY
900 AM MDT SAT AUG 01 2015

NOTE:  "FAIR" INDICATES FEW OR NO CLOUDS BELOW 12,000 FEET
WITH NO SIGNIFICANT WEATHER AND/OR OBSTRUCTIONS TO VISIBILITY.

WYZ001-011600-
YELLOWSTONE NATIONAL PARK

CITY           SKY/WX    TMP DP  RH WIND       PRES   REMARKS
LK YELLOWSTONE   N/A     56  44  64 E3        30.45R
W YELLOWSTONE  NOT AVBL

$$
WYZ002>013-054>058-071-098>099-011600-
NORTHERN WYOMING

CITY           SKY/WX    TMP DP  RH WIND       PRES   REMARKS
JACKSON        SUNNY     57  39  51 CALM      30.37R
CODY           FAIR      75  39  27 W5        30.19S
GREYBULL       FAIR      70  40  33 SE3       30.13S
WORLAND        FAIR      73  32  22 CALM      30.15R
SHERIDAN       FAIR      77  50  38 CALM      30.10S
BUFFALO        FAIR      80  39  23 N3        30.18S
GILLETTE       FAIR      80  45  28 NW7       30.12R
HULETT         FAIR      75  52  43 SW7       30.12S
NEWCASTLE      FAIR      75  46  35 MISG      30.12S

$$
WYZ014>020-022>026-101>103-011600-
CENTRAL WYOMING

CITY           SKY/WX    TMP DP  RH WIND       PRES   REMARKS
BIG PINEY      FAIR      61  38  42 SW3       30.36R
PINEDALE       FAIR      64  34  32 NW7       30.36S
DUBOIS         FAIR      61  32  33 NW9       30.37S
LANDER         FAIR      71  38  29 SE3       30.23R
RIVERTON       FAIR      74  34  23 NW12      30.24R
CASPER         FAIR      74  41  30 SW6       30.21R
DOUGLAS        FAIR      75  45  34 NW10      30.17S

$$
WYZ021-027>030-104>119-011600-
SOUTHERN WYOMING

CITY           SKY/WX    TMP DP  RH WIND       PRES   REMARKS
EVANSTON       FAIR      65  30  27 CALM      30.36R
KEMMERER       FAIR      64  36  34 N6        30.37S
FORT BRIDGER   SUNNY     70  30  23 NW3       30.38R
ROCK SPRINGS   FAIR      65  33  30 CALM      30.33R
DIXON          FAIR      65  37  35 CALM      30.33S
RAWLINS        FAIR      67  37  33 S3        30.31S
SARATOGA       FAIR      70  43  37 CALM      30.32F
LARAMIE        FAIR      68  48  48 S7        30.32R
CHEYENNE       FAIR      76  53  44 S9        30.23S
TORRINGTON     FAIR      74  56  53 CALM      30.10R
PINE BLUFFS    FAIR      75  55  50 S9        30.18S

$$


USA.gov is the U.S. government's official web portal to all federal, state and local government web resources and services.